Temperature
3 3 3 3 3 3 3 2 2 2 2 2 2 2 2 2 1 1 1 2 1 1 1 1 1 1 1 1 1 1 1 1 0 1 1 1 1 1 1 1 1 1 2
3 2 2 2 2 2 2 2 2 2 2 1 1 1 1 1 1 1 1 1 1 1 1 1 1 1 1 1 1 1 1 0 0 0 0 1 1 0 1 1 1 1 1
2 2 2 2 1 1 1 1 1 1 1 1 1 1 1 1 0 0 0 0 0 0 0 0 0 0 0 0 0 0 0 -0 -0 -0 -0 -0 0 -0 0 0 0 0 0
1 1 1 1 1 1 1 1 1 1 1 0 0 0 0 -0 -0 -0 -0 -0 0 0 -0 -0 -0 -0 -0 0 -0 -0 -0 -0 -1 -0 -1 -0 -0 -0 -1 -1 -0 -0 -0
1 1 1 0 0 0 0 0 0 0 0 -0 -0 -0 -0 -1 -0 -0 -0 -0 -0 -0 -0 -0 -0 -1 -0 -0 -1 -1 -1 -1 -1 -1 -1 -1 -1 -1 -1 -1 -1 -1 -1
0 0 0 0 -0 -0 -0 -0 -0 -0 -1 -1 -1 -1 -1 -1 -1 -1 -1 -1 -0 -0 -0 -1 -1 -1 -1 -1 -1 -1 -1 -1 -1 -1 -1 -1 -1 -1 -1 -1 -1 -1 -1
-0 -0 -0 -0 -0 -0 -1 -1 -1 -1 -1 -1 -1 -1 -1 -1 -1 -1 -1 -1 -1 -1 -1 -1 -1 -1 -1 -1 -1 -1 -1 -1 -2 -1 -1 -1 -1 -1 -2 -1 -2 -2 -2
-0 -0 -1 -1 -1 -1 -1 -1 -1 -1 -1 -1 -2 -2 -2 -2 -2 -2 -1 -1 -1 -1 -1 -2 -2 -2 -2 -2 -2 -2 -2 -2 -2 -2 -2 -2 -2 -2 -2 -2 -2 -2 -2
-1 -1 -1 -1 -1 -1 -2 -1 -1 -2 -2 -2 -2 -2 -2 -2 -2 -2 -2 -2 -2 -2 -2 -2 -2 -2 -2 -2 -2 -2 -2 -2 -2 -2 -2 -2 -2 -2 -2 -2 -2 -2 -2
-1 -1 -1 -1 -1 -2 -2 -2 -2 -2 -2 -2 -2 -2 -2 -2 -2 -2 -3 -2 -2 -2 -2 -2 -2 -2 -2 -2 -2 -2 -2 -2 -2 -2 -2 -2 -2 -2 -2 -2 -2 -2 -2
-1 -1 -1 -1 -2 -2 -2 -2 -2 -2 -2 -2 -2 -2 -2 -3 -3 -3 -3 -3 -3 -3 -3 -3 -3 -3 -3 -3 -3 -3 -3 -3 -3 -3 -2 -2 -2 -2 -2 -2 -2 -3 -3
-2 -2 -2 -2 -2 -2 -2 -2 -3 -3 -3 -3 -3 -3 -3 -3 -3 -3 -3 -3 -3 -3 -3 -3 -3 -3 -3 -3 -3 -3 -3 -3 -3 -3 -3 -3 -3 -3 -2 -2 -2 -2 -3
-2 -2 -2 -2 -2 -3 -3 -3 -3 -3 -3 -3 -3 -3 -3 -3 -3 -4 -4 -4 -4 -4 -4 -4 -4 -4 -3 -3 -3 -3 -3 -3 -3 -3 -3 -3 -3 -3 -3 -3 -3 -3 -3
-2 -3 -3 -3 -3 -3 -3 -3 -3 -3 -3 -4 -4 -4 -4 -4 -4 -4 -4 -4 -4 -4 -4 -4 -4 -4 -4 -4 -4 -4 -4 -4 -3 -3 -3 -3 -3 -3 -3 -3 -3 -3 -3
-3 -3 -3 -3 -3 -4 -4 -4 -4 -4 -4 -4 -4 -4 -4 -4 -4 -4 -4 -4 -4 -4 -4 -4 -4 -4 -4 -4 -4 -4 -4 -4 -4 -4 -4 -4 -4 -4 -4 -4 -4 -4 -4
-3 -3 -3 -4 -4 -4 -4 -4 -4 -4 -4 -4 -4 -4 -4 -4 -4 -4 -4 -4 -4 -4 -4 -4 -4 -4 -5 -4 -4 -4 -4 -4 -4 -4 -4 -4 -4 -4 -4 -4 -4 -4 -4
-3 -4 -4 -4 -4 -4 -5 -5 -5 -4 -4 -4 -4 -4 -4 -4 -4 -4 -4 -4 -4 -4 -4 -4 -4 -5 -5 -5 -4 -4 -5 -5 -4 -4 -4 -4 -4 -4 -4 -4 -4 -4 -4
-4 -4 -4 -4 -4 -5 -5 -5 -5 -5 -5 -4 -4 -5 -4 -4 -4 -4 -4 -4 -4 -4 -4 -5 -5 -5 -5 -5 -5 -5 -5 -5 -5 -5 -4 -4 -5 -5 -5 -5 -5 -5 -5
-4 -4 -4 -5 -5 -5 -5 -5 -5 -5 -5 -5 -5 -5 -5 -5 -5 -5 -5 -5 -5 -5 -5 -5 -5 -5 -5 -5 -5 -5 -5 -5 -5 -5 -5 -5 -5 -5 -5 -5 -5 -5 -5
-5 -5 -5 -5 -5 -5 -5 -5 -5 -5 -5 -5 -5 -5 -5 -5 -5 -5 -5 -5 -5 -5 -5 -5 -5 -5 -5 -5 -5 -5 -5 -5 -5 -5 -5 -5 -5 -5 -5 -5 -5 -5 -5
-5 -5 -5 -5 -5 -5 -5 -5 -5 -5 -5 -5 -5 -5 -5 -5 -5 -5 -5 -5 -5 -5 -5 -5 -5 -5 -5 -5 -5 -5 -5 -5 -5 -5 -5 -5 -5 -5 -5 -5 -5 -5 -5
-5 -5 -5 -5 -5 -5 -6 -6 -6 -6 -6 -6 -6 -6 -6 -5 -5 -5 -5 -5 -5 -5 -5 -5 -5 -5 -5 -5 -5 -5 -5 -5 -5 -5 -5 -5 -5 -5 -5 -5 -5 -5 -5
-5 -5 -5 -5 -5 -5 -6 -6 -6 -6 -6 -6 -6 -6 -6 -6 -6 -6 -6 -6 -6 -5 -5 -5 -5 -5 -5 -5 -5 -5 -5 -5 -5 -5 -5 -5 -5 -5 -5 -5 -5 -5 -5
-5 -5 -5 -5 -5 -6 -6 -6 -6 -6 -6 -6 -6 -6 -6 -6 -6 -6 -6 -6 -6 -6 -6 -5 -5 -5 -5 -5 -5 -5 -5 -5 -5 -5 -5 -5 -5 -5 -5 -5 -5 -5 -5
-5 -5 -5 -5 -6 -6 -6 -6 -6 -6 -6 -6 -6 -6 -5 -5 -6 -6 -6 -6 -6 -6 -6 -5 -5 -5 -5 -5 -5 -5 -5 -5 -5 -5 -5 -5 -5 -5 -5 -5 -5 -5 -4
-6 -6 -6 -6 -6 -6 -6 -6 -6 -6 -6 -6 -6 -6 -5 -5 -6 -6 -6 -6 -6 -6 -6 -5 -5 -5 -5 -5 -5 -5 -5 -5 -5 -5 -5 -5 -5 -5 -5 -5 -5 -4 -4
Wind_Speed
1 1 0 0 1 1 2 2 2 2 2 2 3 3 3 3 3 3 3 3 3 3 3 4 4 3 3 3 3 3 3 3 6 5 4 4 5 5 5 6 7 7 8
0 1 0 0 1 1 2 2 2 2 2 3 3 3 3 3 3 3 3 3 4 4 4 4 3 3 3 3 3 4 4 4 4 6 5 4 5 5 4 5 5 6 6
0 0 0 1 1 2 2 2 2 3 3 3 3 3 3 3 3 3 3 4 4 4 4 4 4 3 3 3 4 4 4 4 4 5 5 4 4 4 5 5 6 4 7
0 1 1 2 2 2 2 2 2 3 3 3 3 3 3 3 3 3 3 4 4 3 4 4 4 4 4 4 4 4 4 4 3 3 4 4 4 4 4 4 5 4 5
1 2 2 2 2 2 2 2 3 3 3 3 3 3 3 3 3 3 3 3 3 3 3 3 3 4 5 4 4 3 3 3 3 3 4 4 4 3 4 4 5 5 5
2 2 3 2 3 3 3 3 3 3 3 3 3 3 3 4 5 5 4 3 3 3 3 3 3 4 5 6 7 6 5 5 4 4 4 5 5 4 4 5 5 5 5
2 3 3 3 3 3 3 3 3 3 3 3 3 4 4 4 5 5 5 3 3 3 3 3 3 3 3 2 4 5 5 6 6 5 5 6 5 5 5 5 5 5 5
3 3 3 3 3 3 3 4 4 3 3 3 4 4 4 4 5 5 5 3 2 2 3 3 3 2 2 2 2 2 2 4 4 4 4 5 5 5 5 5 5 5 5
4 4 4 3 3 3 4 4 4 3 3 3 3 3 3 4 5 5 4 2 2 2 2 2 2 3 4 4 2 2 3 3 4 6 6 6 7 9 7 4 3 4 5
4 4 3 3 3 3 4 3 3 3 3 3 3 3 3 3 4 4 4 2 2 2 2 2 3 3 5 4 2 2 3 4 3 4 4 5 5 5 6 4 3 3 3
3 3 3 2 3 3 3 3 2 2 2 2 2 2 2 3 3 4 4 2 2 2 2 1 2 4 4 5 4 3 5 4 2 2 3 3 3 3 3 3 2 3 3
2 2 2 2 2 2 2 2 2 2 2 1 1 1 1 1 2 3 4 3 2 2 2 1 2 3 4 5 4 3 4 3 1 2 2 3 3 3 2 2 3 2 2
1 2 2 1 1 1 1 2 1 1 1 1 1 1 1 1 1 2 3 3 3 1 1 2 3 3 4 3 3 4 3 1 1 2 2 2 2 3 2 2 3 3 3
1 2 1 1 1 1 1 1 1 1 1 1 1 1 1 1 1 1 1 2 2 2 1 2 2 3 3 2 2 2 2 1 2 2 2 2 2 2 2 2 3 3 3
1 1 1 1 1 0 1 1 1 2 2 2 2 2 2 2 2 3 2 1 1 1 1 0 0 0 0 1 1 1 1 1 2 2 2 2 2 2 2 2 2 2 2
1 1 1 1 0 1 1 1 2 2 2 3 2 2 2 2 3 3 3 2 3 2 0 0 0 1 1 1 1 1 1 2 2 2 2 2 2 2 2 2 2 2 2
1 1 1 1 1 1 1 1 1 2 2 2 2 2 2 2 2 2 2 2 2 1 0 0 0 1 1 1 1 1 2 2 2 2 2 2 2 2 2 2 2 2 2
1 1 2 1 1 1 1 1 1 1 1 2 2 2 2 1 2 2 1 1 0 1 0 0 1 1 1 1 1 2 2 2 2 2 2 2 2 2 2 2 2 2 2
1 1 1 1 1 1 1 1 1 1 1 1 1 2 2 2 2 2 1 1 0 0 1 1 1 1 1 1 1 2 2 2 2 2 2 2 2 2 2 2 2 3 2
1 2 1 1 1 1 1 1 1 0 0 0 1 1 1 1 1 1 1 1 0 0 1 1 1 1 1 1 2 2 2 2 2 2 2 2 2 2 2 2 2 2 2
1 1 1 0 0 1 1 1 0 0 0 0 1 1 1 0 0 0 0 0 0 0 1 1 1 1 2 1 1 2 2 2 2 2 2 2 2 2 2 2 2 2 2
1 1 1 1 0 0 0 0 0 0 0 0 1 1 1 1 1 0 0 1 1 0 1 1 1 2 2 2 2 2 2 3 3 2 2 2 2 2 2 2 2 2 2
1 1 1 1 1 1 0 0 0 0 0 0 0 0 0 0 0 0 1 1 1 1 1 1 2 2 2 2 2 2 3 3 3 3 3 3 3 3 2 2 2 2 2
1 1 1 1 1 1 1 1 1 1 0 0 0 0 0 0 0 1 1 1 1 1 1 1 2 3 4 3 3 3 3 4 4 3 3 3 3 3 2 2 2 2 2
1 1 1 1 1 1 1 1 1 1 0 0 0 0 0 0 0 1 1 1 1 2 2 2 2 3 4 4 4 4 5 6 5 3 3 3 3 3 2 2 2 2 1
1 1 1 1 1 1 1 1 1 1 0 0 0 0 1 1 1 1 1 1 1 2 2 2 3 4 5 5 5 6 7 6 5 5 3 2 2 2 2 1 1 1 1
Wind_Direction
185 198 214 262 232 217 225 229 222 226 243 245 252 248 239 240 234 236 240 235 235 242 248 245 246 246 244 246 247 247 248 248 266 281 281 290 295 293 301 300 292 281 282
232 217 217 287 289 244 234 247 231 224 235 239 243 247 238 241 234 231 245 242 232 237 243 244 248 248 246 254 252 249 250 245 256 276 285 288 289 286 290 292 296 296 289
343 237 230 265 274 274 260 263 243 230 236 241 240 241 237 237 236 238 242 243 234 232 237 240 244 245 253 255 256 254 254 261 258 264 279 286 290 293 299 295 292 298 301
206 237 237 254 256 261 265 269 256 240 233 237 238 241 237 236 234 240 242 243 234 233 238 241 242 240 244 247 254 254 256 259 256 261 275 284 285 287 291 297 302 299 302
250 247 244 251 258 258 258 254 253 249 245 238 237 240 237 236 237 243 238 245 230 236 245 244 245 254 260 252 259 252 255 259 258 260 268 281 282 290 293 294 296 301 297
259 258 259 253 248 249 248 246 250 246 240 231 233 236 237 247 260 264 255 236 235 233 242 249 248 248 258 266 271 269 261 254 253 260 269 270 276 283 289 292 296 303 300
264 266 264 255 253 252 249 244 246 244 240 238 239 234 236 242 260 265 262 243 238 232 228 238 258 260 271 255 270 282 284 278 266 263 267 274 277 277 281 290 290 292 288
261 263 262 253 251 251 246 244 243 240 237 234 237 233 235 243 253 260 263 245 238 236 233 234 237 234 244 259 259 276 283 289 282 279 266 276 283 282 272 271 274 285 288
261 260 257 249 249 251 248 246 239 238 239 237 233 234 231 234 245 250 258 228 230 249 252 246 241 229 252 274 268 271 288 294 296 289 289 292 294 295 293 293 289 290 298
265 267 259 253 250 252 250 248 247 241 237 237 247 239 225 227 241 245 250 217 217 241 255 247 253 259 264 275 246 237 267 279 291 308 308 308 308 306 305 295 280 282 289
275 278 263 252 253 257 254 244 240 238 234 234 248 251 235 236 239 240 246 220 212 231 254 262 260 281 286 284 282 257 265 280 280 290 299 301 305 311 316 316 296 278 278
281 281 269 268 277 280 259 256 243 229 228 238 251 272 269 248 247 246 248 251 249 221 242 256 269 287 293 293 293 292 295 307 299 295 298 300 303 309 315 323 330 329 299
284 282 281 283 274 275 262 268 266 240 216 221 223 249 260 251 249 263 263 272 280 265 247 269 288 299 306 301 300 305 306 298 276 278 288 296 302 301 310 323 330 332 331
263 282 287 275 288 302 296 280 274 255 229 223 227 236 248 256 246 240 239 257 279 280 273 280 302 306 310 310 315 315 311 285 280 272 282 294 301 309 315 320 323 323 328
266 285 289 265 236 298 321 300 270 248 229 224 222 217 216 230 253 264 255 247 248 247 275 303 300 294 308 319 314 317 325 330 317 301 295 300 307 311 317 319 314 316 308
266 292 297 276 274 280 296 328 325 280 275 265 261 254 248 259 282 286 286 290 298 286 277 182 245 261 266 281 296 313 318 313 305 302 302 299 303 307 312 320 320 316 316
231 266 284 279 268 279 293 296 322 337 317 292 280 272 259 259 277 290 291 293 303 324 71 186 250 263 276 282 292 301 299 299 298 294 300 299 296 301 305 314 319 318 317
233 253 259 251 257 265 276 270 268 298 333 337 327 324 323 316 327 340 341 358 343 17 48 230 263 279 291 293 296 301 303 304 304 302 298 297 298 299 298 301 302 308 313
239 250 247 239 250 267 275 270 265 268 272 324 349 350 5 10 12 17 37 74 99 359 350 329 312 306 304 298 291 292 294 296 295 296 294 294 292 294 294 295 299 301 308
234 234 227 220 236 268 282 279 279 269 288 346 333 333 347 15 40 25 29 34 56 3 337 326 321 309 300 293 293 294 298 300 297 298 297 293 288 282 287 294 299 300 303
222 231 239 236 219 235 256 248 242 212 219 268 300 303 337 98 109 144 289 335 306 300 300 306 304 300 296 293 289 288 292 294 293 292 291 287 283 284 287 290 293 294 295
192 207 202 196 192 211 223 205 170 162 160 53 332 328 1 47 51 31 359 341 329 300 277 271 282 284 285 281 278 279 282 286 288 285 286 288 286 282 280 281 286 287 287
178 189 192 195 189 207 230 185 159 156 165 219 279 319 351 50 57 349 330 335 322 312 319 303 292 297 305 297 283 270 268 272 274 269 270 273 275 274 271 273 274 279 279
178 186 189 193 189 186 190 188 178 169 178 218 281 296 294 296 311 321 318 321 324 321 318 308 299 293 299 303 296 282 274 275 271 252 252 256 264 272 275 273 273 270 275
169 169 168 175 179 179 177 174 176 165 177 234 282 298 305 303 302 314 309 318 318 311 306 307 307 304 302 302 300 294 292 291 287 270 249 249 257 260 261 267 267 271 276
154 156 164 168 167 166 171 178 184 179 191 237 264 272 294 299 290 291 295 306 312 312 314 315 309 306 305 302 296 299 302 300 293 285 265 243 248 258 251 254 259 261 256
Height
1453 1453 1453 1453 1454 1454 1454 1454 1454 1455 1455 1455 1455 1455 1455 1455 1456 1456 1456 1457 1457 1458 1458 1459 1458 1459 1459 1459 1460 1460 1460 1459 1457 1456 1456 1456 1455 1454 1452 1451 1449 1448 1446
1450 1450 1450 1450 1450 1450 1450 1451 1451 1451 1451 1451 1451 1451 1451 1451 1451 1452 1452 1452 1452 1453 1454 1454 1454 1454 1454 1455 1455 1455 1455 1455 1454 1452 1451 1451 1450 1449 1448 1446 1445 1443 1442
1447 1447 1446 1447 1446 1446 1446 1447 1447 1447 1447 1447 1447 1447 1447 1447 1447 1447 1448 1448 1449 1449 1449 1450 1449 1450 1450 1450 1450 1450 1450 1450 1450 1449 1447 1446 1446 1445 1443 1442 1440 1439 1437
1444 1444 1443 1443 1443 1443 1443 1443 1443 1443 1442 1442 1442 1443 1443 1443 1443 1443 1444 1444 1444 1445 1445 1445 1445 1445 1445 1446 1446 1446 1446 1446 1445 1445 1444 1442 1441 1440 1439 1437 1435 1434 1432
1441 1440 1440 1440 1440 1440 1439 1439 1439 1439 1438 1439 1439 1439 1439 1439 1439 1439 1440 1440 1440 1441 1441 1441 1441 1442 1442 1442 1442 1442 1442 1441 1441 1441 1440 1438 1437 1436 1435 1434 1432 1429 1427
1438 1437 1437 1436 1436 1436 1435 1435 1435 1435 1435 1435 1435 1435 1435 1435 1435 1435 1436 1436 1437 1437 1437 1437 1438 1438 1438 1438 1438 1438 1438 1438 1437 1437 1435 1434 1433 1433 1432 1430 1428 1426 1423
1434 1434 1433 1432 1432 1432 1431 1431 1431 1431 1431 1431 1431 1431 1431 1431 1431 1432 1432 1433 1433 1433 1433 1434 1434 1434 1434 1434 1434 1434 1434 1434 1435 1434 1432 1431 1430 1429 1429 1427 1425 1423 1421
1431 1430 1430 1429 1428 1428 1427 1427 1427 1427 1427 1427 1427 1427 1427 1427 1428 1428 1429 1429 1429 1430 1430 1430 1430 1430 1431 1431 1430 1430 1430 1430 1430 1430 1429 1428 1427 1426 1426 1424 1422 1420 1417
1428 1427 1426 1425 1424 1424 1423 1423 1423 1423 1423 1423 1423 1423 1424 1424 1424 1425 1426 1426 1426 1426 1426 1427 1427 1427 1428 1428 1427 1427 1426 1426 1427 1426 1426 1425 1424 1423 1422 1420 1418 1416 1413
1424 1424 1423 1422 1421 1420 1420 1419 1419 1419 1420 1420 1420 1420 1420 1420 1421 1422 1423 1422 1422 1423 1423 1424 1424 1424 1424 1424 1424 1424 1423 1423 1423 1422 1422 1421 1420 1419 1418 1417 1415 1413 1410
1421 1421 1420 1419 1418 1417 1417 1416 1416 1416 1416 1416 1416 1417 1417 1418 1418 1419 1419 1420 1420 1420 1420 1420 1420 1421 1421 1421 1421 1421 1420 1420 1420 1419 1418 1417 1416 1415 1414 1413 1412 1411 1409
1418 1417 1416 1416 1415 1415 1414 1414 1413 1413 1413 1413 1413 1414 1414 1415 1416 1416 1417 1417 1418 1418 1417 1418 1418 1418 1418 1418 1418 1418 1418 1418 1417 1416 1415 1414 1413 1412 1411 1410 1409 1408 1406
1415 1414 1414 1413 1413 1412 1411 1411 1411 1411 1411 1410 1411 1411 1412 1412 1413 1413 1414 1414 1415 1415 1415 1415 1415 1415 1415 1415 1415 1415 1415 1415 1414 1413 1412 1411 1411 1410 1409 1408 1406 1405 1403
1412 1411 1411 1410 1410 1409 1409 1409 1409 1409 1408 1408 1408 1409 1409 1410 1410 1411 1411 1412 1412 1412 1412 1412 1413 1413 1413 1413 1412 1412 1412 1412 1411 1411 1410 1409 1409 1408 1407 1405 1404 1402 1401
1409 1409 1408 1408 1407 1407 1407 1407 1407 1407 1407 1407 1407 1407 1407 1408 1409 1409 1410 1409 1410 1410 1410 1410 1410 1410 1409 1410 1410 1410 1410 1409 1409 1408 1408 1407 1406 1406 1404 1403 1402 1401 1400
1407 1407 1406 1406 1405 1405 1405 1405 1405 1406 1406 1405 1406 1406 1406 1407 1407 1408 1408 1408 1408 1408 1408 1407 1407 1407 1407 1407 1407 1407 1407 1407 1406 1406 1406 1405 1404 1404 1403 1402 1401 1400 1399
1405 1404 1404 1404 1404 1403 1403 1403 1403 1404 1404 1404 1404 1404 1405 1405 1406 1406 1406 1406 1406 1406 1406 1405 1405 1405 1405 1405 1405 1405 1405 1405 1404 1404 1404 1403 1403 1402 1401 1401 1400 1399 1398
1403 1403 1402 1402 1402 1402 1402 1402 1402 1401 1401 1402 1403 1403 1403 1403 1404 1404 1404 1404 1404 1404 1404 1404 1404 1404 1404 1404 1404 1403 1403 1403 1402 1402 1402 1402 1401 1401 1400 1399 1399 1398 1397
1401 1401 1401 1401 1400 1400 1401 1401 1401 1400 1401 1401 1401 1402 1402 1402 1402 1402 1403 1403 1402 1402 1402 1402 1402 1402 1402 1402 1402 1402 1401 1401 1401 1401 1400 1400 1400 1399 1399 1398 1398 1397 1396
1400 1400 1400 1399 1399 1399 1399 1400 1400 1400 1400 1400 1400 1401 1401 1401 1401 1401 1401 1401 1401 1401 1401 1401 1401 1401 1400 1400 1400 1400 1400 1399 1399 1399 1399 1398 1398 1398 1397 1397 1396 1396 1395
1398 1398 1398 1398 1398 1398 1399 1399 1399 1399 1399 1399 1400 1400 1400 1400 1400 1400 1400 1400 1400 1400 1400 1400 1399 1399 1399 1399 1399 1398 1398 1398 1398 1397 1397 1397 1397 1396 1396 1395 1395 1395 1394
1397 1397 1397 1397 1397 1397 1398 1398 1398 1398 1399 1399 1399 1399 1399 1399 1399 1399 1399 1399 1399 1399 1399 1399 1398 1398 1398 1397 1397 1397 1397 1396 1396 1396 1396 1395 1395 1394 1394 1394 1394 1393 1393
1396 1396 1396 1397 1397 1397 1397 1397 1397 1398 1398 1398 1398 1398 1399 1399 1398 1398 1398 1398 1398 1398 1398 1398 1397 1397 1396 1396 1396 1396 1395 1395 1395 1394 1394 1393 1393 1393 1392 1392 1392 1392 1391
1395 1395 1396 1396 1396 1396 1396 1396 1397 1397 1397 1398 1398 1398 1398 1398 1398 1398 1398 1398 1397 1397 1397 1396 1396 1396 1395 1395 1394 1394 1394 1393 1393 1393 1392 1392 1392 1391 1391 1390 1390 1390 1390
1394 1394 1395 1395 1395 1395 1395 1396 1396 1396 1397 1397 1397 1397 1397 1397 1397 1397 1397 1397 1397 1396 1396 1395 1395 1394 1394 1394 1393 1392 1392 1392 1391 1391 1391 1390 1390 1390 1389 1389 1389 1389 1388
1393 1393 1394 1394 1394 1394 1395 1395 1395 1396 1396 1397 1397 1397 1397 1397 1397 1397 1397 1396 1396 1396 1395 1394 1394 1393 1393 1392 1391 1391 1390 1390 1390 1389 1389 1389 1388 1388 1388 1388 1388 1387 1387